カタログに戻る

USA 392

運用中ナビゲーションVLEO
NORAD 60175·PAYLOAD·🇺🇸 United States

打ち上げ Jun 29, 2024 から Vandenberg Space Force Base

Loading…

次のパス (今後24時間)

TLE

古いSource: Mike McCants

元期: Aug 26, 2026, 00:31 UTC

1 60175U 24121T   26238.02199120 0.00000000  00000-0  00000-0 0    07
2 60175  70.0075 211.4752 0003000  16.6569 343.3431 14.96712900    08

AllMySatでUSA 392をリアルタイム追跡

Download on the App Store